When you browse on this site, cookies collect data to enhance your experience and personalize the content and advertising you see.
Visit our Privacy Policy to learn more. By continuing to use the site, you agree to this use of cookies and data.
EN

Hourly Weather Madang

Today, 4 July, Saturday

Time Temperature Precipitation Wind Pressure Humidity
00:00 +27°C° 0.4 mm 1 mps 759 mmHg 91%
01:00 +27°C° 0.4 mm 1 mps 759 mmHg 92%
02:00 +26°C° 0.1 mm 1 mps 758 mmHg 92%
03:00 +26°C° 0.1 mm 1 mps 758 mmHg 93%
04:00 +26°C° 0.1 mm 2 mps 758 mmHg 93%
05:00 +26°C° 0 mm 2 mps 758 mmHg 92%
06:00 +26°C° 0 mm 2 mps 758 mmHg 92%
07:00 +26°C° 0 mm 2 mps 758 mmHg 92%
08:00 +28°C° 0 mm 1 mps 758 mmHg 82%
09:00 +30°C° 0 mm 1 mps 758 mmHg 72%
10:00 +32°C° 0 mm 1 mps 758 mmHg 62%
11:00 +33°C° 0 mm 1 mps 758 mmHg 61%
12:00 +34°C° 0 mm 2 mps 757 mmHg 60%
13:00 +35°C° 0 mm 2 mps 756 mmHg 59%
14:00 +34°C° 0.2 mm 2 mps 756 mmHg 64%
15:00 +33°C° 0.2 mm 3 mps 756 mmHg 70%
16:00 +31°C° 0.2 mm 3 mps 755 mmHg 75%
17:00 +30°C° 0.7 mm 3 mps 756 mmHg 80%
18:00 +29°C° 0.7 mm 3 mps 756 mmHg 86%
19:00 +28°C° 0.7 mm 3 mps 757 mmHg 91%
20:00 +28°C° 0.9 mm 3 mps 757 mmHg 91%
21:00 +28°C° 0.9 mm 3 mps 758 mmHg 91%
22:00 +27°C° 0.9 mm 2 mps 758 mmHg 91%
23:00 +27°C° 0.3 mm 2 mps 758 mmHg 91%

Tomorrow, 5 July, Sunday

Time Temperature Precipitation Wind Pressure Humidity
00:00 +27°C° 0.3 mm 1 mps 758 mmHg 91%
01:00 +26°C° 0.3 mm 1 mps 757 mmHg 90%
02:00 +26°C° 0 mm 1 mps 757 mmHg 91%
03:00 +26°C° 0 mm 1 mps 757 mmHg 91%
04:00 +26°C° 0 mm 2 mps 757 mmHg 91%
05:00 +26°C° 0 mm 2 mps 757 mmHg 91%
06:00 +26°C° 0 mm 2 mps 757 mmHg 90%
07:00 +26°C° 0 mm 2 mps 757 mmHg 90%
08:00 +28°C° 0 mm 2 mps 758 mmHg 80%
09:00 +30°C° 0 mm 1 mps 758 mmHg 71%
10:00 +32°C° 0 mm 1 mps 758 mmHg 61%
11:00 +33°C° 0.1 mm 1 mps 758 mmHg 59%
12:00 +33°C° 0.1 mm 1 mps 757 mmHg 58%
13:00 +34°C° 0.1 mm 1 mps 756 mmHg 57%
14:00 +32°C° 0.4 mm 2 mps 756 mmHg 67%
15:00 +31°C° 0.4 mm 2 mps 755 mmHg 77%
16:00 +29°C° 0.4 mm 2 mps 755 mmHg 87%
17:00 +29°C° 0.5 mm 2 mps 756 mmHg 88%
18:00 +28°C° 0.5 mm 2 mps 756 mmHg 89%
19:00 +28°C° 0.5 mm 2 mps 757 mmHg 90%
20:00 +27°C° 0.6 mm 2 mps 758 mmHg 91%
21:00 +27°C° 0.6 mm 2 mps 758 mmHg 92%
22:00 +27°C° 0.6 mm 2 mps 758 mmHg 93%
23:00 +27°C° 0.8 mm 2 mps 758 mmHg 93%

Day after tomorrow, 6 July, Monday

Time Temperature Precipitation Wind Pressure Humidity
00:00 +27°C° 0.8 mm 2 mps 758 mmHg 93%
01:00 +27°C° 0.8 mm 2 mps 757 mmHg 93%
02:00 +27°C° 0.4 mm 2 mps 757 mmHg 93%
03:00 +26°C° 0.4 mm 2 mps 757 mmHg 93%
04:00 +26°C° 0.4 mm 2 mps 757 mmHg 92%
05:00 +26°C° 0.1 mm 2 mps 757 mmHg 92%
06:00 +26°C° 0.1 mm 2 mps 757 mmHg 92%
07:00 +26°C° 0.1 mm 1 mps 757 mmHg 91%
08:00 +28°C° 0 mm 1 mps 758 mmHg 84%
09:00 +30°C° 0 mm 1 mps 758 mmHg 78%
10:00 +31°C° 0 mm 2 mps 758 mmHg 71%
11:00 +32°C° 0 mm 2 mps 757 mmHg 68%
12:00 +32°C° 0 mm 2 mps 757 mmHg 65%
13:00 +34°C° 0 mm 3 mps 756 mmHg 62%
14:00 +34°C° 0.1 mm 3 mps 756 mmHg 65%
15:00 +33°C° 0.1 mm 3 mps 756 mmHg 68%
16:00 +33°C° 0.1 mm 4 mps 755 mmHg 71%
17:00 +31°C° 0.2 mm 3 mps 756 mmHg 76%
18:00 +30°C° 0.2 mm 3 mps 757 mmHg 82%
19:00 +29°C° 0.2 mm 2 mps 757 mmHg 87%
20:00 +28°C° 0.9 mm 2 mps 758 mmHg 89%
21:00 +28°C° 0.9 mm 2 mps 758 mmHg 90%
22:00 +27°C° 0.9 mm 2 mps 758 mmHg 92%
23:00 +27°C° 1.3 mm 2 mps 758 mmHg 92%

7 July, Tuesday

Time Temperature Precipitation Wind Pressure Humidity
00:00 +27°C° 1.3 mm 2 mps 758 mmHg 92%
01:00 +27°C° 1.3 mm 2 mps 757 mmHg 92%
02:00 +27°C° 1.2 mm 2 mps 757 mmHg 92%
03:00 +26°C° 1.2 mm 2 mps 757 mmHg 93%
04:00 +26°C° 1.2 mm 2 mps 757 mmHg 93%
05:00 +26°C° 0.6 mm 2 mps 757 mmHg 93%
06:00 +26°C° 0.6 mm 2 mps 758 mmHg 93%
07:00 +26°C° 0.6 mm 1 mps 758 mmHg 93%
08:00 +28°C° 0.1 mm 1 mps 758 mmHg 86%
09:00 +29°C° 0.1 mm 1 mps 758 mmHg 79%
10:00 +31°C° 0.1 mm 1 mps 758 mmHg 73%
11:00 +32°C° 0 mm 2 mps 757 mmHg 69%
12:00 +32°C° 0 mm 2 mps 757 mmHg 66%
13:00 +34°C° 0 mm 2 mps 756 mmHg 63%
14:00 +33°C° 0 mm 3 mps 756 mmHg 64%
15:00 +33°C° 0 mm 3 mps 756 mmHg 66%
16:00 +33°C° 0 mm 3 mps 755 mmHg 68%
17:00 +31°C° 0.1 mm 2 mps 756 mmHg 74%
18:00 +29°C° 0.1 mm 2 mps 756 mmHg 80%
19:00 +28°C° 0.1 mm 2 mps 757 mmHg 86%
20:00 +28°C° 0.2 mm 2 mps 757 mmHg 87%
21:00 +28°C° 0.2 mm 2 mps 758 mmHg 88%
22:00 +28°C° 0.2 mm 2 mps 758 mmHg 88%
23:00 +27°C° 0.5 mm 1 mps 758 mmHg 89%

8 July, Wednesday

Time Temperature Precipitation Wind Pressure Humidity
00:00 +27°C° 0.5 mm 1 mps 757 mmHg 90%
01:00 +27°C° 0.5 mm 1 mps 757 mmHg 91%
02:00 +27°C° 0.9 mm 1 mps 757 mmHg 92%
03:00 +26°C° 0.9 mm 1 mps 757 mmHg 92%
04:00 +26°C° 0.9 mm 2 mps 756 mmHg 92%
05:00 +26°C° 0.6 mm 2 mps 757 mmHg 92%
06:00 +26°C° 0.6 mm 2 mps 757 mmHg 91%
07:00 +26°C° 0.6 mm 2 mps 757 mmHg 91%
08:00 +28°C° 0.4 mm 1 mps 757 mmHg 85%
09:00 +29°C° 0.4 mm 1 mps 757 mmHg 78%
10:00 +31°C° 0.4 mm 1 mps 757 mmHg 72%
11:00 +31°C° 0.4 mm 1 mps 757 mmHg 71%
12:00 +32°C° 0.4 mm 2 mps 756 mmHg 71%
13:00 +32°C° 0.4 mm 2 mps 756 mmHg 70%
14:00 +32°C° 0.2 mm 2 mps 755 mmHg 72%
15:00 +31°C° 0.2 mm 3 mps 755 mmHg 75%
16:00 +31°C° 0.2 mm 3 mps 755 mmHg 77%
17:00 +30°C° 0.1 mm 2 mps 755 mmHg 81%
18:00 +29°C° 0.1 mm 2 mps 756 mmHg 85%
19:00 +28°C° 0.1 mm 2 mps 756 mmHg 89%
20:00 +28°C° 0 mm 1 mps 757 mmHg 90%
21:00 +27°C° 0 mm 1 mps 757 mmHg 91%
22:00 +27°C° 0 mm 1 mps 758 mmHg 92%
23:00 +27°C° 0 mm 1 mps 758 mmHg 92%

9 July, Thursday

Time Temperature Precipitation Wind Pressure Humidity
00:00 +27°C° 0 mm 1 mps 757 mmHg 92%
01:00 +26°C° 0 mm 1 mps 757 mmHg 92%
02:00 +26°C° 0 mm 2 mps 757 mmHg 92%
03:00 +26°C° 0 mm 2 mps 757 mmHg 92%
04:00 +25°C° 0 mm 2 mps 756 mmHg 92%
05:00 +25°C° 0 mm 2 mps 757 mmHg 91%
06:00 +25°C° 0 mm 2 mps 757 mmHg 90%
07:00 +25°C° 0 mm 2 mps 757 mmHg 90%
08:00 +28°C° 0 mm 2 mps 757 mmHg 80%
09:00 +30°C° 0 mm 1 mps 757 mmHg 71%
10:00 +32°C° 0 mm 1 mps 757 mmHg 61%
11:00 +33°C° 0 mm 1 mps 757 mmHg 60%
12:00 +34°C° 0 mm 2 mps 756 mmHg 59%
13:00 +35°C° 0 mm 2 mps 756 mmHg 58%
14:00 +34°C° 0 mm 2 mps 755 mmHg 61%
15:00 +33°C° 0 mm 3 mps 755 mmHg 64%
16:00 +33°C° 0 mm 3 mps 755 mmHg 68%
17:00 +30°C° 0 mm 2 mps 755 mmHg 74%
18:00 +29°C° 0 mm 2 mps 756 mmHg 80%
19:00 +28°C° 0 mm 1 mps 756 mmHg 87%
20:00 +27°C° 0 mm 1 mps 757 mmHg 88%
21:00 +27°C° 0 mm 1 mps 757 mmHg 89%
22:00 +27°C° 0 mm 1 mps 758 mmHg 90%
23:00 +27°C° 0.1 mm 1 mps 758 mmHg 90%
Show more